Location: Airlie Beach - Cannonvale QLD, Australia
(20.2768°S, 148.7558°E)
Time: 07:17:09
(UTC+10:00)

Tiangong - Visible Passes

Search period start: 26 March 2023 00:00
Search period end: 05 April 2023 00:00
Orbit: 376 x 380 km, 41.5° (Epoch: 25 March)

Date Brightness Start Highest point End Pass type
(mag) Time Alt. Az. Time Alt. Az. Time Alt. Az.
26 Mar 0.7 05:13:15 10° S 05:14:56 14° SSE 05:16:36 10° ESE visible
27 Mar -1.6 05:46:44 10° SW 05:49:51 59° SE 05:52:57 10° ENE visible
28 Mar -0.1 04:46:46 20° S 04:47:48 24° SE 04:50:26 10° E visible
29 Mar -2.1 05:20:31 21° WSW 05:22:22 56° NW 05:25:26 10° NE visible
30 Mar 0.5 04:22:09 19° ENE 04:22:09 19° ENE 04:23:14 10° ENE visible
30 Mar -1.5 19:06:31 10° NNW 19:09:25 35° NE 19:09:44 34° ENE visible
31 Mar -0.1 04:55:51 18° N 04:55:51 18° N 04:57:03 10° NNE visible
31 Mar -0.5 19:40:45 10° WNW 19:43:13 32° SW 19:43:13 32° SW visible
01 Apr -2.2 18:38:04 10° NW 18:41:11 86° NE 18:44:20 10° SE visible
02 Apr 0.3 19:13:05 10° W 19:15:21 18° SSW 19:17:23 11° S visible
04 Apr 0.8 18:45:52 10° SW 18:46:45 11° SSW 18:47:37 10° SSW visible
